Regional Weather Roundup
Issued by NWS

Home | Current Version | Previous Version | Graphics & Text | Print | Product List | Glossary On
Versions: 1 2 3 4 5 6 7 8 9 10 11 12 13 14 15 16 17 18 19 20 21 22 23 24 25 26 27 28 29 30 31 32 33 34 35 36 37 38 39 40 41 42 43 44 45 46 47 48 49 50
197
ASUS44 KJAN 192210
RWRMS

MISSISSIPPI HOURLY WEATHER ROUNDUP
NATIONAL WEATHER SERVICE JACKSON MS
500 PM CDT TUE AUG 19 2014

NOTE: "FAIR: INDICATES FEW OR NO CLOUDS BELOW 12,000 FEET WITH NO
SIGNIFICANT WEATHER AND/OR OBSTRUCTIONS TO VISIBILITY.

MSZ001>002-007>008-010>013-018>021-025>028-034>036-192300-
NORTHWEST MISSISSIPPI

CITY           SKY/WX    TMP DP  RH WIND       PRES   REMARKS
CLARKSDALE     FAIR      91  77  62 CALM      29.87S HX 105
CLEVELAND      FAIR      93  80  66 SW9       29.87R HX 111
GREENWOOD      MOSUNNY   91  77  63 S12       29.87F HX 104
GREENVILLE       N/A    N/A N/A N/A MISG      29.87
GRENADA        FAIR      91  73  55 SW5       29.87S HX 100
OLIVE BRANCH   MOSUNNY   90  75  62 S12       29.85F HX 100
OXFORD         FAIR      90  72  55 W5        29.89S HX  96
TUNICA         CLEAR     91  77  62 S12       29.85S HX 105
$$

MSZ003>006-009-014>017-022>024-029>033-037>039-192300-
NORTHEAST MISSISSIPPI

CITY           SKY/WX    TMP DP  RH WIND       PRES   REMARKS
BELMONT        FAIR      88  73  61 SW5       29.89S HX  95
COLUMBUS AFB   MOSUNNY   92  70  48 VRB1      29.88F HX  98
CORINTH        FAIR      91  70  49 SW9       29.86S HX  97
GOLDN TRIANGLE MOSUNNY   95  72  46 NW8       29.89F HX 103
STARKVILLE     FAIR      91  70  49 NW6       29.88F HX  97
TUPELO         MOSUNNY   91  68  46 W5        29.87F HX  95
$$

MSZ040-058-192300-
CENTRAL MISSISSIPPI

CITY           SKY/WX    TMP DP  RH WIND       PRES   REMARKS
JACKSON INTL   PTSUNNY   90  75  61 SW7       29.93R HX 100
JACKSON HAWKNS PTSUNNY   91  74  57 W7        29.93R HX 100
MERIDIAN KEY   PTSUNNY   88  68  51 CALM      29.92S HX  91
MERIDIAN NAS   CLOUDY    85  70  60 SW7       29.91S
RAYMOND        FAIR      90  84  84 SW6       29.93R HAZE    HX 115
VICKSBURG      PTSUNNY   91  73  55 SW8       29.91S HX  99
$$

MSZ059>079-192300-
SOUTH MISSISSIPPI

CITY           SKY/WX    TMP DP  RH WIND       PRES   REMARKS
BROOKHAVEN     FAIR      91  73  55 S3        29.97R HX 100
COLUMBIA       FAIR      91  73  55 MISG      29.92S HX 100
HATTIESBURG    MOSUNNY   95  71  45 VRB6      29.93R HX 102
MCCOMB         MOSUNNY   93  68  43 VRB6      29.95R HX  97
NATCHEZ        MOSUNNY   90  75  62 W6        29.95R HX 100
PINE BELT      MOSUNNY   91  72  52 SW3       29.95R HX  98
$$

MSZ080>082-192300-
COASTAL MISSISSIPPI

CITY           SKY/WX    TMP DP  RH WIND       PRES   REMARKS
BAY ST LOUIS   MOSUNNY  N/A N/A N/A SW9       29.93S
BILOXI         SUNNY     89  77  66 SW16      29.94S HX 101
PASCAGOULA     MOSUNNY   88  75  65 VRB7      29.94S HX  97
GULFPORT       SUNNY     89  76  65 S10       29.93S HX 100
$$



USA.gov is the U.S. government's official web portal to all federal, state and local government web resources and services.